Time,TemperatureF,DewpointF,PressureIn,WindDirection,WindDirectionDegrees,WindSpeedMPH,WindSpeedGustMPH,Humidity,HourlyPrecipIn,Conditions,Clouds,dailyrainin,SoftwareType,DateUTC
2013-02-14 00:02:00,29.0,25.0,29.63,North,0,0.0,0.0,86,-99.99,,,-99.99,,2013-02-14 05:02:00,
2013-02-14 00:11:00,29.0,25.0,29.63,North,0,0.0,0.0,86,-99.99,,,-99.99,,2013-02-14 05:11:00,
2013-02-14 00:22:00,29.0,25.0,29.63,North,0,0.0,0.0,86,-99.99,,,-99.99,,2013-02-14 05:22:00,
2013-02-14 00:32:00,29.0,25.0,29.63,North,0,0.0,0.0,86,-99.99,,,-99.99,,2013-02-14 05:32:00,
2013-02-14 00:42:00,29.0,25.0,29.63,North,0,0.0,0.0,86,-99.99,,,-99.99,,2013-02-14 05:42:00,
2013-02-14 00:52:00,28.0,25.0,29.62,North,0,0.0,1.0,90,-99.99,,,-99.99,,2013-02-14 05:52:00,
2013-02-14 01:02:00,28.0,25.0,29.62,North,0,0.0,1.0,90,-99.99,,,-99.99,,2013-02-14 06:02:00,
2013-02-14 01:11:00,28.0,25.0,29.62,North,0,0.0,1.0,90,-99.99,,,-99.99,,2013-02-14 06:11:00,
2013-02-14 01:21:00,28.0,25.0,29.62,North,0,0.0,1.0,90,-99.99,,,-99.99,,2013-02-14 06:21:00,
2013-02-14 02:01:00,26.0,24.0,29.66,North,0,0.0,0.0,91,-99.99,,,-99.99,,2013-02-14 07:01:00,
2013-02-14 02:11:00,26.0,25.0,29.66,North,0,0.0,0.0,95,-99.99,,,-99.99,,2013-02-14 07:11:00,
2013-02-14 02:21:00,26.0,25.0,29.66,North,0,0.0,0.0,95,-99.99,,,-99.99,,2013-02-14 07:21:00,
2013-02-14 02:32:00,26.0,25.0,29.66,North,0,0.0,0.0,95,-99.99,,,-99.99,,2013-02-14 07:32:00,
2013-02-14 02:42:00,26.0,25.0,29.66,North,0,0.0,0.0,95,-99.99,,,-99.99,,2013-02-14 07:42:00,
2013-02-14 02:52:00,26.0,24.0,29.67,North,0,1.0,2.0,93,-99.99,,,-99.99,,2013-02-14 07:52:00,
2013-02-14 03:01:00,26.0,24.0,29.67,North,0,1.0,2.0,93,-99.99,,,-99.99,,2013-02-14 08:01:00,
2013-02-14 03:11:00,26.0,24.0,29.67,North,0,1.0,2.0,93,-99.99,,,-99.99,,2013-02-14 08:11:00,
2013-02-14 03:21:00,26.0,24.0,29.67,North,0,1.0,2.0,93,-99.99,,,-99.99,,2013-02-14 08:21:00,
2013-02-14 04:11:00,21.0,21.0,29.68,North,0,0.0,0.0,100,-99.99,,,-99.99,,2013-02-14 09:11:00,
2013-02-14 04:21:00,21.0,21.0,29.68,North,0,0.0,0.0,100,-99.99,,,-99.99,,2013-02-14 09:21:00,
2013-02-14 04:32:00,21.0,21.0,29.68,North,0,0.0,0.0,100,-99.99,,,-99.99,,2013-02-14 09:32:00,
2013-02-14 04:42:00,21.0,21.0,29.68,North,0,0.0,0.0,100,-99.99,,,-99.99,,2013-02-14 09:42:00,
2013-02-14 04:52:00,20.0,-55.0,29.70,North,0,0.0,0.0,2,-99.99,,,-99.99,,2013-02-14 09:52:00,
2013-02-14 05:02:00,19.0,-56.0,29.70,North,0,0.0,0.0,2,-99.99,,,-99.99,,2013-02-14 10:02:00,
2013-02-14 05:52:00,18.0,-45.0,29.72,North,0,0.0,0.0,4,-99.99,,,-99.99,,2013-02-14 10:52:00,
2013-02-14 06:11:00,17.0,-39.0,29.72,North,0,0.0,0.0,6,-99.99,,,-99.99,,2013-02-14 11:11:00,
2013-02-14 06:21:00,17.0,-39.0,29.72,North,0,0.0,0.0,6,-99.99,,,-99.99,,2013-02-14 11:21:00,
2013-02-14 08:52:00,20.0,-34.0,29.80,North,0,0.0,0.0,7,-99.99,,,-99.99,,2013-02-14 13:52:00,
2013-02-14 09:52:00,29.0,24.0,29.84,NW,315,3.0,6.0,82,-99.99,,,-99.99,,2013-02-14 14:52:00,
2013-02-14 10:02:00,29.0,24.0,29.84,NW,315,3.0,6.0,82,-99.99,,,-99.99,,2013-02-14 15:02:00,
2013-02-14 10:11:00,29.0,24.0,29.84,NW,315,3.0,6.0,82,-99.99,,,-99.99,,2013-02-14 15:11:00,
2013-02-14 10:21:00,29.0,24.0,29.84,NW,315,3.0,6.0,82,-99.99,,,-99.99,,2013-02-14 15:21:00,
2013-02-14 10:32:00,33.0,26.0,29.85,North,0,2.0,6.0,75,-99.99,,,-99.99,,2013-02-14 15:32:00,
2013-02-14 10:42:00,33.0,26.0,29.85,North,0,2.0,6.0,75,-99.99,,,-99.99,,2013-02-14 15:42:00,
2013-02-14 10:52:00,33.0,26.0,29.85,North,0,2.0,6.0,75,-99.99,,,-99.99,,2013-02-14 15:52:00,
2013-02-14 11:02:00,35.0,27.0,29.85,SW,229,1.0,8.0,71,-99.99,,,-99.99,,2013-02-14 16:02:00,
2013-02-14 11:11:00,35.0,27.0,29.85,SW,229,1.0,8.0,71,-99.99,,,-99.99,,2013-02-14 16:11:00,
2013-02-14 11:22:00,35.0,27.0,29.85,SW,229,1.0,8.0,71,-99.99,,,-99.99,,2013-02-14 16:22:00,
2013-02-14 11:32:00,35.0,27.0,29.85,SW,229,1.0,8.0,71,-99.99,,,-99.99,,2013-02-14 16:32:00,
2013-02-14 11:42:00,35.0,27.0,29.85,SW,229,1.0,8.0,71,-99.99,,,-99.99,,2013-02-14 16:42:00,
2013-02-14 11:52:00,36.0,27.0,29.85,West,274,4.0,5.0,70,-99.99,,,-99.99,,2013-02-14 16:52:00,
2013-02-14 12:01:00,36.0,27.0,29.85,West,274,4.0,5.0,70,-99.99,,,-99.99,,2013-02-14 17:01:00,
2013-02-14 12:11:00,36.0,27.0,29.85,West,274,4.0,5.0,70,-99.99,,,-99.99,,2013-02-14 17:11:00,
2013-02-14 12:21:00,36.0,27.0,29.85,West,274,4.0,5.0,70,-99.99,,,-99.99,,2013-02-14 17:21:00,
2013-02-14 12:32:00,37.0,27.0,29.85,North,351,6.0,8.0,66,-99.99,,,-99.99,,2013-02-14 17:32:00,
2013-02-14 12:42:00,37.0,27.0,29.85,North,351,6.0,8.0,66,-99.99,,,-99.99,,2013-02-14 17:42:00,
2013-02-14 12:52:00,36.0,27.0,29.84,North,9,3.0,8.0,69,-99.99,,,-99.99,,2013-02-14 17:52:00,
2013-02-14 13:01:00,36.0,27.0,29.84,North,9,3.0,8.0,69,-99.99,,,-99.99,,2013-02-14 18:01:00,
2013-02-14 13:11:00,36.0,27.0,29.84,North,9,3.0,8.0,69,-99.99,,,-99.99,,2013-02-14 18:11:00,
2013-02-14 13:23:00,36.0,27.0,29.84,North,9,3.0,8.0,69,-99.99,,,-99.99,,2013-02-14 18:23:00,
2013-02-14 13:32:00,38.0,27.0,29.82,West,270,4.0,5.0,65,-99.99,,,-99.99,,2013-02-14 18:32:00,
2013-02-14 13:42:00,38.0,27.0,29.82,West,270,4.0,5.0,65,-99.99,,,-99.99,,2013-02-14 18:42:00,
2013-02-14 13:52:00,41.0,29.0,29.83,NNE,13,6.0,6.0,62,-99.99,,,-99.99,,2013-02-14 18:52:00,
2013-02-14 14:02:00,41.0,29.0,29.83,NNE,13,6.0,6.0,62,-99.99,,,-99.99,,2013-02-14 19:02:00,
2013-02-14 14:11:00,41.0,29.0,29.83,NNE,13,6.0,6.0,62,-99.99,,,-99.99,,2013-02-14 19:11:00,
2013-02-14 14:22:00,41.0,29.0,29.83,NNE,13,6.0,6.0,62,-99.99,,,-99.99,,2013-02-14 19:22:00,
2013-02-14 16:32:00,40.0,28.0,29.84,SW,225,0.0,3.0,61,-99.99,,,-99.99,,2013-02-14 21:32:00,
2013-02-14 16:42:00,40.0,28.0,29.84,SW,225,0.0,3.0,61,-99.99,,,-99.99,,2013-02-14 21:42:00,
2013-02-14 16:52:00,40.0,28.0,29.84,SW,225,0.0,3.0,61,-99.99,,,-99.99,,2013-02-14 21:52:00,
2013-02-14 17:02:00,37.0,27.0,29.84,SE,135,0.0,0.0,67,-99.99,,,-99.99,,2013-02-14 22:02:00,
2013-02-14 17:11:00,37.0,27.0,29.84,SE,135,0.0,0.0,67,-99.99,,,-99.99,,2013-02-14 22:11:00,
2013-02-14 17:21:00,37.0,27.0,29.84,SE,135,0.0,0.0,67,-99.99,,,-99.99,,2013-02-14 22:21:00,
2013-02-14 17:32:00,37.0,27.0,29.85,South,180,0.0,0.0,67,-99.99,,,-99.99,,2013-02-14 22:32:00,
2013-02-14 17:42:00,37.0,27.0,29.85,South,180,0.0,0.0,67,-99.99,,,-99.99,,2013-02-14 22:42:00,
2013-02-14 17:52:00,35.0,26.0,29.85,SE,135,0.0,0.0,69,-99.99,,,-99.99,,2013-02-14 22:52:00,
2013-02-14 18:01:00,35.0,26.0,29.85,SE,135,0.0,0.0,69,-99.99,,,-99.99,,2013-02-14 23:01:00,
2013-02-14 18:11:00,35.0,26.0,29.85,SE,135,0.0,0.0,69,-99.99,,,-99.99,,2013-02-14 23:11:00,
2013-02-14 18:21:00,35.0,26.0,29.85,SE,135,0.0,0.0,69,-99.99,,,-99.99,,2013-02-14 23:21:00,
2013-02-14 18:32:00,32.0,25.0,29.85,SE,135,0.0,0.0,74,-99.99,,,-99.99,,2013-02-14 23:32:00,
2013-02-14 18:42:00,32.0,25.0,29.85,SE,135,0.0,0.0,74,-99.99,,,-99.99,,2013-02-14 23:42:00,
2013-02-14 18:52:00,32.0,25.0,29.85,SE,135,0.0,0.0,74,-99.99,,,-99.99,,2013-02-14 23:52:00,
2013-02-14 19:01:00,28.0,24.0,29.85,SE,135,1.0,1.0,83,-99.99,,,-99.99,,2013-02-15 00:01:00,
2013-02-14 19:11:00,28.0,24.0,29.85,SE,135,1.0,1.0,83,-99.99,,,-99.99,,2013-02-15 00:11:00,
2013-02-14 19:22:00,28.0,24.0,29.85,SE,135,1.0,1.0,83,-99.99,,,-99.99,,2013-02-15 00:22:00,
2013-02-14 19:32:00,27.0,23.0,29.84,SE,135,0.0,1.0,85,-99.99,,,-99.99,,2013-02-15 00:32:00,
2013-02-14 19:42:00,27.0,23.0,29.84,SE,135,0.0,1.0,85,-99.99,,,-99.99,,2013-02-15 00:42:00,
2013-02-14 19:52:00,27.0,24.0,29.83,SE,135,0.0,0.0,88,-99.99,,,-99.99,,2013-02-15 00:52:00,
2013-02-14 20:02:00,27.0,24.0,29.83,SE,135,0.0,0.0,90,-99.99,,,-99.99,,2013-02-15 01:02:00,
2013-02-14 20:11:00,27.0,24.0,29.83,SE,135,0.0,0.0,90,-99.99,,,-99.99,,2013-02-15 01:11:00,
2013-02-14 20:21:00,27.0,24.0,29.83,SE,135,0.0,0.0,90,-99.99,,,-99.99,,2013-02-15 01:21:00,
2013-02-14 20:32:00,28.0,26.0,29.83,SE,135,0.0,1.0,92,-99.99,,,-99.99,,2013-02-15 01:32:00,
2013-02-14 20:41:00,28.0,26.0,29.83,SE,135,0.0,1.0,92,-99.99,,,-99.99,,2013-02-15 01:41:00,
2013-02-14 20:52:00,28.0,26.0,29.83,SE,135,0.0,1.0,92,-99.99,,,-99.99,,2013-02-15 01:52:00,
2013-02-14 21:01:00,28.0,26.0,29.83,SE,135,0.0,1.0,92,-99.99,,,-99.99,,2013-02-15 02:01:00,
2013-02-14 21:32:00,29.0,26.0,29.84,West,270,0.0,2.0,88,-99.99,,,-99.99,,2013-02-15 02:32:00,
2013-02-14 21:42:00,29.0,26.0,29.84,West,270,0.0,2.0,88,-99.99,,,-99.99,,2013-02-15 02:42:00,
2013-02-14 21:52:00,29.0,26.0,29.84,West,270,0.0,2.0,88,-99.99,,,-99.99,,2013-02-15 02:52:00,
2013-02-14 22:02:00,29.0,26.0,29.84,West,270,0.0,2.0,88,-99.99,,,-99.99,,2013-02-15 03:02:00,
2013-02-14 22:52:00,28.0,26.0,29.85,SW,225,1.0,1.0,91,-99.99,,,-99.99,,2013-02-15 03:52:00,
2013-02-14 23:02:00,28.0,26.0,29.84,West,270,0.0,1.0,92,-99.99,,,-99.99,,2013-02-15 04:02:00,
2013-02-14 23:11:00,28.0,26.0,29.84,West,270,0.0,1.0,92,-99.99,,,-99.99,,2013-02-15 04:11:00,
2013-02-14 23:21:00,28.0,26.0,29.84,West,270,0.0,1.0,92,-99.99,,,-99.99,,2013-02-15 04:21:00,
2013-02-14 23:32:00,28.0,26.0,29.84,West,270,0.0,1.0,92,-99.99,,,-99.99,,2013-02-15 04:32:00,
2013-02-14 23:42:00,28.0,26.0,29.84,West,270,0.0,1.0,92,-99.99,,,-99.99,,2013-02-15 04:42:00,
2013-02-14 23:52:00,29.0,27.0,29.84,WSW,245,1.0,1.0,94,-99.99,,,-99.99,,2013-02-15 04:52:00,